FW8685 Weather Reports


Display with metric or nautical units.
time (UTC)temp
F
wind
direction
speed
MPH
gust
MPH
rain 1hr
in
rain 24hr
in
rain mn
in
humidity
%
barometer
mb
20260901030048 85 95 7.0 10.0 0.00 0.00 0.00 48 1011.7
20260901025526 85 97 6.0 9.0 0.00 0.00 0.00 48 1011.8
20260901025026 85 101 6.0 9.0 0.00 0.00 0.00 47 1011.8
20260901024546 85 107 6.0 9.0 0.00 0.00 0.00 47 1011.6
20260901024025 86 86 5.0 9.0 0.00 0.00 0.00 47 1011.5
20260901023524 86 98 6.0 9.0 0.00 0.00 0.00 46 1011.4
20260901023044 86 96 6.0 9.0 0.00 0.00 0.00 46 1011.3
20260901022524 86 111 6.0 9.0 0.00 0.00 0.00 46 1011.3
20260901022029 87 96 6.0 9.0 0.00 0.00 0.00 46 1011.2
20260901021550 87 93 5.0 10.0 0.00 0.00 0.00 45 1011.2
20260901021025 87 101 7.0 10.0 0.00 0.00 0.00 45 1011.0
20260901020525 87 95 6.0 10.0 0.00 0.00 0.00 45 1011.0
20260901020051 88 92 6.0 10.0 0.00 0.00 0.00 44 1010.9
20260901015525 88 94 5.0 9.0 0.00 0.00 0.00 44 1010.8
20260901015025 88 90 5.0 9.0 0.00 0.00 0.00 44 1010.9
20260901014547 89 105 6.0 9.0 0.00 0.00 0.00 43 1010.8
20260901014024 89 92 6.0 9.0 0.00 0.00 0.00 43 1010.8
20260901013525 90 100 5.0 9.0 0.00 0.00 0.00 42 1010.6
20260901013100 90 96 5.0 9.0 0.00 0.00 0.00 42 1010.6
20260901012525 90 107 6.0 9.0 0.00 0.00 0.00 41 1010.6
20260901012025 91 105 6.0 9.0 0.00 0.00 0.00 40 1010.6
20260901011545 91 93 6.0 8.0 0.00 0.00 0.00 40 1010.6
20260901011025 92 103 5.0 8.0 0.00 0.00 0.00 39 1010.6
20260901010526 92 103 5.0 9.0 0.00 0.00 0.00 39 1010.5
20260901010046 93 101 6.0 9.0 0.00 0.00 0.00 38 1010.4
20260901005526 93 95 6.0 10.0 0.00 0.00 0.00 38 1010.4
20260901005025 93 103 6.0 10.0 0.00 0.00 0.00 37 1010.4
20260901004549 94 100 5.0 9.0 0.00 0.00 0.00 37 1010.4
20260901004024 95 102 6.0 10.0 0.00 0.00 0.00 37 1010.3
20260901003525 95 98 6.0 10.0 0.00 0.00 0.00 36 1010.3
20260901003044 96 98 7.0 10.0 0.00 0.00 0.00 35 1010.2
20260901002525 96 103 6.0 11.0 0.00 0.00 0.00 35 1010.3
20260901002024 97 103 7.0 11.0 0.00 0.00 0.00 34 1010.3
20260901001546 97 99 7.0 11.0 0.00 0.00 0.00 33 1010.2
20260901001026 98 103 7.0 12.0 0.00 0.00 0.00 33 1010.2
20260901000528 98 113 8.0 12.0 0.00 0.00 0.00 32 1010.2
20260901000045 98 96 8.0 13.0 0.00 0.00 0.00 32 1010.3
20260831235525 98 104 9.0 13.0 0.00 0.00 0.00 31 1010.3
20260831235028 99 94 7.0 12.0 0.00 0.00 0.00 31 1010.3
20260831234550 99 104 8.0 17.0 0.00 0.00 0.00 30 1010.3
20260831234024 99 109 10.0 17.0 0.00 0.00 0.00 30 1010.2
20260831233526 99 102 10.0 15.0 0.00 0.00 0.00 30 1010.4
20260831233053 99 100 9.0 18.0 0.00 0.00 0.00 30 1010.3
20260831232527 100 93 11.0 18.0 0.00 0.00 0.00 30 1010.3
20260831232025 100 94 10.0 18.0 0.00 0.00 0.00 30 1010.3
20260831231544 100 98 8.0 17.0 0.00 0.00 0.00 30 1010.3
20260831231030 101 103 9.0 17.0 0.00 0.00 0.00 30 1010.4
20260831230525 101 113 11.0 18.0 0.00 0.00 0.00 30 1010.3
20260831230045 101 113 13.0 19.0 0.00 0.00 0.00 30 1010.4
20260831225525 101 113 11.0 19.0 0.00 0.00 0.00 30 1010.4
20260831225030 101 124 13.0 20.0 0.00 0.00 0.00 30 1010.5
20260831224546 101 110 13.0 20.0 0.00 0.00 0.00 30 1010.4
20260831224028 101 97 13.0 20.0 0.00 0.00 0.00 30 1010.4
20260831223526 101 112 14.0 20.0 0.00 0.00 0.00 29 1010.5
20260831223053 102 113 12.0 21.0 0.00 0.00 0.00 29 1010.4
20260831222525 102 95 13.0 21.0 0.00 0.00 0.00 29 1010.5
20260831222026 102 103 11.0 20.0 0.00 0.00 0.00 29 1010.6
20260831221544 103 112 11.0 17.0 0.00 0.00 0.00 29 1010.7
20260831221024 102 92 11.0 18.0 0.00 0.00 0.00 28 1010.6
20260831220522 102 113 12.0 18.0 0.00 0.00 0.00 28 1010.6
20260831220051 103 84 10.0 18.0 0.00 0.00 0.00 28 1010.6
20260831215527 103 88 10.0 14.0 0.00 0.00 0.00 28 1010.6
20260831215025 103 97 9.0 13.0 0.00 0.00 0.00 27 1010.6
20260831214558 103 117 8.0 18.0 0.00 0.00 0.00 27 1010.7
20260831214024 103 146 10.0 18.0 0.00 0.00 0.00 26 1010.7
20260831213525 103 128 11.0 22.0 0.00 0.00 0.00 27 1010.7
20260831213043 103 105 10.0 22.0 0.00 0.00 0.00 27 1010.7
20260831212818 104 107 14.0 21.0 0.00 0.00 0.00 27 1010.7
20260831212028 104 103 9.0 18.0 0.00 0.00 0.00 27 1010.8
20260831211545 104 144 11.0 18.0 0.00 0.00 0.00 25 1010.8
20260831211024 105 120 10.0 23.0 0.00 0.00 0.00 26 1010.8
20260831210525 104 115 13.0 23.0 0.00 0.00 0.00 26 1010.8
20260831210046 104 110 13.0 24.0 0.00 0.00 0.00 27 1010.8
20260831205525 104 97 17.0 24.0 0.00 0.00 0.00 26 1010.8
20260831205024 104 127 12.0 22.0 0.00 0.00 0.00 27 1010.8
20260831204549 103 110 13.0 22.0 0.00 0.00 0.00 28 1010.8
20260831204028 103 95 15.0 22.0 0.00 0.00 0.00 27 1010.9
20260831203523 103 111 12.0 22.0 0.00 0.00 0.00 27 1011.0
20260831203042 104 105 14.0 22.0 0.00 0.00 0.00 28 1011.0
20260831202527 104 130 12.0 21.0 0.00 0.00 0.00 27 1011.2
20260831202026 104 95 12.0 21.0 0.00 0.00 0.00 27 1011.2
20260831201551 104 134 8.0 20.0 0.00 0.00 0.00 27 1011.2
20260831201026 105 99 13.0 20.0 0.00 0.00 0.00 27 1011.3
20260831200525 104 114 12.0 19.0 0.00 0.00 0.00 28 1011.3
20260831200046 104 118 11.0 25.0 0.00 0.00 0.00 27 1011.3
20260831195524 104 110 11.0 25.0 0.00 0.00 0.00 27 1011.4
20260831195025 104 108 14.0 25.0 0.00 0.00 0.00 28 1011.5
20260831194546 104 117 13.0 21.0 0.00 0.00 0.00 28 1011.5
20260831194024 104 128 11.0 23.0 0.00 0.00 0.00 28 1011.5
20260831193526 104 114 14.0 23.0 0.00 0.00 0.00 29 1011.8
20260831193118 103 128 11.0 23.0 0.00 0.00 0.00 30 1011.7
20260831192524 103 157 12.0 23.0 0.00 0.00 0.00 29 1011.8
20260831192027 103 134 6.0 18.0 0.00 0.00 0.00 30 1011.8
20260831191545 103 118 11.0 23.0 0.00 0.00 0.00 29 1011.8
20260831191024 103 101 14.0 23.0 0.00 0.00 0.00 30 1011.9
20260831190527 103 170 7.0 21.0 0.00 0.00 0.00 30 1011.8
20260831190048 103 133 12.0 22.0 0.00 0.00 0.00 30 1012.0
20260831185525 103 122 11.0 22.0 0.00 0.00 0.00 29 1011.9
20260831185023 104 130 11.0 22.0 0.00 0.00 0.00 30 1012.0
20260831184550 103 96 12.0 22.0 0.00 0.00 0.00 31 1011.9
20260831184025 103 141 13.0 22.0 0.00 0.00 0.00 31 1012.0
20260831183525 102 165 11.0 19.0 0.00 0.00 0.00 31 1011.9
20260831183053 103 140 9.0 23.0 0.00 0.00 0.00 31 1012.0
20260831182527 103 144 11.0 23.0 0.00 0.00 0.00 31 1012.1
20260831182025 102 125 10.0 20.0 0.00 0.00 0.00 31 1012.1
20260831181557 103 107 10.0 18.0 0.00 0.00 0.00 33 1012.2
20260831181024 102 123 10.0 22.0 0.00 0.00 0.00 34 1012.3
20260831180525 101 101 11.0 23.0 0.00 0.00 0.00 35 1012.4
20260831180046 101 123 11.0 23.0 0.00 0.00 0.00 34 1012.4
20260831175524 100 183 9.0 21.0 0.00 0.00 0.00 35 1012.5
20260831175024 101 160 10.0 21.0 0.00 0.00 0.00 34 1012.7
20260831174548 101 135 12.0 19.0 0.00 0.00 0.00 35 1012.7
20260831174024 99 155 9.0 21.0 0.00 0.00 0.00 36 1012.8
20260831173525 99 163 9.0 22.0 0.00 0.00 0.00 36 1012.9
20260831173047 99 113 11.0 22.0 0.00 0.00 0.00 35 1012.9
20260831172524 99 123 11.0 20.0 0.00 0.00 0.00 37 1013.0
20260831172025 98 108 8.0 20.0 0.00 0.00 0.00 38 1013.0
20260831171544 98 121 11.0 20.0 0.00 0.00 0.00 37 1013.1
20260831171025 98 123 9.0 18.0 0.00 0.00 0.00 37 1013.0
20260831170524 97 150 13.0 18.0 0.00 0.00 0.00 37 1013.2
20260831170043 97 140 8.0 17.0 0.00 0.00 0.00 38 1013.1
20260831165525 97 113 9.0 20.0 0.00 0.00 0.00 39 1013.2
20260831165025 97 170 11.0 20.0 0.00 0.00 0.00 38 1013.2
20260831164605 96 138 11.0 20.0 0.00 0.00 0.00 38 1013.2
20260831164024 96 132 11.0 21.0 0.00 0.00 0.00 39 1013.2
20260831163525 96 111 12.0 21.0 0.00 0.00 0.00 39 1013.2
20260831163048 96 123 9.0 19.0 0.00 0.00 0.00 40 1013.3
20260831162523 95 139 13.0 19.0 0.00 0.00 0.00 40 1013.3
20260831162024 96 113 9.0 18.0 0.00 0.00 0.00 40 1013.3
20260831161600 95 165 8.0 18.0 0.00 0.00 0.00 40 1013.4
20260831161023 95 138 11.0 18.0 0.00 0.00 0.00 41 1013.4
20260831160526 95 126 11.0 17.0 0.00 0.00 0.00 41 1013.5
20260831160056 94 121 10.0 17.0 0.00 0.00 0.00 41 1013.5
20260831155524 94 130 11.0 17.0 0.00 0.00 0.00 42 1013.4
20260831155026 94 119 8.0 17.0 0.00 0.00 0.00 42 1013.5
20260831154613 93 126 8.0 18.0 0.00 0.00 0.00 43 1013.4
20260831154029 93 116 11.0 18.0 0.00 0.00 0.00 42 1013.4
20260831153525 93 140 8.0 18.0 0.00 0.00 0.00 43 1013.3
20260831153046 93 123 9.0 18.0 0.00 0.00 0.00 43 1013.3
20260831152528 93 167 10.0 17.0 0.00 0.00 0.00 43 1013.4
20260831152025 92 154 6.0 15.0 0.00 0.00 0.00 44 1013.4
20260831151546 92 132 8.0 15.0 0.00 0.00 0.00 44 1013.3
20260831151025 91 128 8.0 15.0 0.00 0.00 0.00 45 1013.4
20260831150524 91 132 7.0 17.0 0.00 0.00 0.00 45 1013.4
20260831150050 90 145 7.0 17.0 0.00 0.00 0.00 46 1013.4
20260831145524 90 131 8.0 16.0 0.00 0.00 0.00 46 1013.3
20260831145024 89 164 6.0 16.0 0.00 0.00 0.00 47 1013.3
20260831144544 89 143 8.0 15.0 0.00 0.00 0.00 48 1013.4
20260831144024 88 139 9.0 15.0 0.00 0.00 0.00 48 1013.4
20260831143523 87 127 6.0 12.0 0.00 0.00 0.00 50 1013.4
20260831143044 86 125 7.0 11.0 0.00 0.00 0.00 50 1013.4
20260831142527 86 149 6.0 11.0 0.00 0.00 0.00 51 1013.4
20260831142025 85 161 6.0 11.0 0.00 0.00 0.00 52 1013.4
20260831141550 85 150 5.0 12.0 0.00 0.00 0.00 53 1013.4
20260831141024 84 115 8.0 12.0 0.00 0.00 0.00 54 1013.2
20260831140525 83 120 7.0 12.0 0.00 0.00 0.00 55 1013.3
20260831140045 83 134 7.0 13.0 0.00 0.00 0.00 56 1013.3
20260831135525 82 136 9.0 13.0 0.00 0.00 0.00 57 1013.3
20260831135028 81 125 6.0 10.0 0.00 0.00 0.00 58 1013.3
20260831134548 80 117 7.0 13.0 0.00 0.00 0.00 60 1013.4
20260831134025 80 120 7.0 16.0 0.00 0.00 0.00 61 1013.3
20260831133522 79 107 10.0 16.0 0.00 0.00 0.00 61 1013.3
20260831133047 78 112 10.0 13.0 0.00 0.00 0.00 62 1013.2
20260831132524 78 103 7.0 12.0 0.00 0.00 0.00 63 1013.1
20260831132025 77 111 8.0 12.0 0.00 0.00 0.00 64 1013.2
20260831131557 76 105 6.0 10.0 0.00 0.00 0.00 65 1013.2
20260831131025 76 119 6.0 10.0 0.00 0.00 0.00 66 1013.2
20260831130525 75 124 7.0 11.0 0.00 0.00 0.00 67 1013.0
20260831130047 75 117 7.0 11.0 0.00 0.00 0.00 69 1013.1
20260831125527 74 111 6.0 10.0 0.00 0.00 0.00 70 1013.0
20260831125025 73 111 7.0 10.0 0.00 0.00 0.00 72 1012.9
20260831124545 72 111 7.0 10.0 0.00 0.00 0.00 73 1012.8
20260831124023 72 98 6.0 9.0 0.00 0.00 0.00 74 1012.7
20260831123526 71 114 4.0 7.0 0.00 0.00 0.00 74 1012.7
20260831123046 71 107 3.0 7.0 0.00 0.00 0.00 74 1012.7
20260831122529 71 97 4.0 6.0 0.00 0.00 0.00 73 1012.8
20260831122024 71 116 3.0 6.0 0.00 0.00 0.00 73 1012.8
20260831121550 71 125 3.0 6.0 0.00 0.00 0.00 73 1012.8
20260831121029 71 107 3.0 4.0 0.00 0.00 0.00 73 1012.8
20260831120528 71 104 2.0 4.0 0.00 0.00 0.00 73 1012.9
20260831120048 71 103 2.0 4.0 0.00 0.00 0.00 73 1012.8
20260831115526 72 98 2.0 6.0 0.00 0.00 0.00 73 1012.7
20260831115024 72 93 3.0 6.0 0.00 0.00 0.00 73 1012.7
20260831114547 72 92 1.0 4.0 0.00 0.00 0.00 72 1012.6
20260831114025 72 0 0.0 0.0 0.00 0.00 0.00 71 1012.7
20260831113524 72 0 0.0 0.0 0.00 0.00 0.00 71 1012.5
20260831113049 72 0 0.0 1.0 0.00 0.00 0.00 70 1012.5
20260831112526 72 0 0.0 2.0 0.00 0.00 0.00 70 1012.3
20260831112024 72 109 0.0 3.0 0.00 0.00 0.00 70 1012.4
20260831111551 72 109 1.0 3.0 0.00 0.00 0.00 70 1012.3
20260831111024 73 109 1.0 3.0 0.00 0.00 0.00 69 1012.3
20260831110524 73 109 2.0 3.0 0.00 0.00 0.00 69 1012.2
20260831110046 73 109 1.0 4.0 0.00 0.00 0.00 68 1012.2
20260831105525 73 109 2.0 4.0 0.00 0.00 0.00 68 1012.0
20260831105026 73 110 2.0 4.0 0.00 0.00 0.00 67 1012.0
20260831104551 73 119 2.0 4.0 0.00 0.00 0.00 67 1012.0
20260831104026 74 113 3.0 6.0 0.00 0.00 0.00 67 1011.8
20260831103524 74 123 2.0 6.0 0.00 0.00 0.00 66 1011.8
20260831103050 74 105 3.0 6.0 0.00 0.00 0.00 66 1011.7
20260831102524 74 111 3.0 4.0 0.00 0.00 0.00 65 1011.7
20260831102025 75 109 2.0 4.0 0.00 0.00 0.00 65 1011.8
20260831101546 75 105 2.0 4.0 0.00 0.00 0.00 65 1011.7
20260831101023 75 107 2.0 4.0 0.00 0.00 0.00 65 1011.7
20260831100525 75 108 2.0 4.0 0.00 0.00 0.00 64 1011.7
20260831100100 75 106 3.0 4.0 0.00 0.00 0.00 64 1011.7
20260831095525 76 109 3.0 4.0 0.00 0.00 0.00 63 1011.4
20260831095026 76 115 3.0 6.0 0.00 0.00 0.00 63 1011.3
20260831094548 76 116 3.0 6.0 0.00 0.00 0.00 62 1011.3
20260831094024 76 117 3.0 6.0 0.00 0.00 0.00 62 1011.5
20260831093525 77 108 4.0 6.0 0.00 0.00 0.00 62 1011.3
20260831093056 77 112 3.0 6.0 0.00 0.00 0.00 61 1011.2
20260831092523 77 115 3.0 5.0 0.00 0.00 0.00 61 1011.2
20260831092022 77 145 3.0 7.0 0.00 0.00 0.00 61 1011.3
20260831091541 77 138 3.0 7.0 0.00 0.00 0.00 60 1011.1
20260831091029 78 122 2.0 7.0 0.00 0.00 0.00 60 1011.0
20260831090523 78 126 3.0 8.0 0.00 0.00 0.00 60 1011.0
20260831090056 78 125 3.0 8.0 0.00 0.00 0.00 60 1011.2
20260831085525 78 126 4.0 8.0 0.00 0.00 0.00 59 1011.0
20260831085024 78 110 4.0 8.0 0.00 0.00 0.00 59 1010.8
20260831084545 78 130 3.0 9.0 0.00 0.00 0.00 59 1010.8
20260831084025 78 122 5.0 9.0 0.00 0.00 0.00 59 1010.9
20260831083525 79 135 5.0 9.0 0.00 0.00 0.00 59 1010.7
20260831083102 79 149 5.0 9.0 0.00 0.00 0.00 58 1010.7
20260831082525 79 108 5.0 10.0 0.00 0.00 0.00 58 1010.5
20260831082025 79 127 5.0 10.0 0.00 0.00 0.00 58 1010.7
20260831081555 79 134 5.0 9.0 0.00 0.00 0.00 58 1010.7
20260831081027 79 121 6.0 9.0 0.00 0.00 0.00 57 1010.6
20260831080525 80 130 6.0 12.0 0.00 0.00 0.00 57 1010.6
20260831080120 80 114 6.0 12.0 0.00 0.00 0.00 57 1010.5
20260831075528 80 111 6.0 12.0 0.00 0.00 0.00 56 1010.7
20260831075026 80 120 6.0 10.0 0.00 0.00 0.00 56 1010.7
20260831074547 81 113 6.0 10.0 0.00 0.00 0.00 56 1010.8
20260831074024 81 121 6.0 9.0 0.00 0.00 0.00 55 1010.8
20260831073524 81 110 6.0 12.0 0.00 0.00 0.00 55 1010.8
20260831073045 81 103 6.0 12.0 0.00 0.00 0.00 54 1010.8
20260831072527 81 125 7.0 12.0 0.00 0.00 0.00 54 1010.9
20260831072025 82 117 7.0 12.0 0.00 0.00 0.00 54 1010.8
20260831071548 82 137 5.0 12.0 0.00 0.00 0.00 54 1011.0
20260831071025 82 140 5.0 11.0 0.00 0.00 0.00 53 1010.9
20260831070524 82 144 5.0 11.0 0.00 0.00 0.00 53 1010.8
20260831070048 82 124 6.0 13.0 0.00 0.00 0.00 53 1010.9
20260831065526 83 123 7.0 13.0 0.00 0.00 0.00 52 1010.9
20260831065025 83 141 7.0 14.0 0.00 0.00 0.00 52 1010.9
20260831064544 83 113 7.0 14.0 0.00 0.00 0.00 52 1010.8
20260831064025 83 126 9.0 15.0 0.00 0.00 0.00 52 1010.8
20260831063525 83 118 9.0 15.0 0.00 0.00 0.00 52 1010.7
20260831063106 83 134 8.0 16.0 0.00 0.00 0.00 52 1010.6
20260831062524 84 141 9.0 17.0 0.00 0.00 0.00 51 1010.4
20260831062024 84 134 10.0 17.0 0.00 0.00 0.00 51 1010.3
20260831061547 84 113 9.0 16.0 0.00 0.00 0.00 51 1010.4
20260831061027 84 119 10.0 20.0 0.00 0.00 0.00 51 1010.4
20260831060524 84 113 10.0 20.0 0.00 0.00 0.00 50 1010.3
20260831060048 84 119 11.0 19.0 0.00 0.00 0.00 50 1010.3
20260831055524 84 126 10.0 19.0 0.00 0.00 0.00 50 1010.2
20260831055025 84 111 11.0 19.0 0.00 0.00 0.00 50 1010.2
20260831054543 84 128 10.0 20.0 0.00 0.00 0.00 50 1010.0
20260831054025 84 109 9.0 20.0 0.00 0.00 0.00 50 1009.8
20260831053525 84 140 8.0 17.0 0.00 0.00 0.00 50 1009.7
20260831053122 84 122 11.0 16.0 0.00 0.00 0.00 50 1009.6
20260831052524 84 113 9.0 16.0 0.00 0.00 0.00 50 1009.6
20260831052027 84 109 10.0 17.0 0.00 0.00 0.00 50 1009.6
20260831051545 84 113 11.0 17.0 0.00 0.00 0.00 50 1009.6
20260831051023 84 100 10.0 17.0 0.00 0.00 0.00 50 1009.6
20260831050523 84 110 10.0 16.0 0.00 0.00 0.00 49 1009.5
20260831050051 84 115 10.0 15.0 0.00 0.00 0.00 49 1009.5
20260831045525 84 107 11.0 15.0 0.00 0.00 0.00 49 1009.3
20260831045028 84 111 11.0 15.0 0.00 0.00 0.00 49 1009.3
20260831044636 84 114 11.0 15.0 0.00 0.00 0.00 49 1009.3
20260831044026 84 112 11.0 15.0 0.00 0.00 0.00 49 1009.3
20260831043524 84 104 10.0 16.0 0.00 0.00 0.00 49 1009.4
20260831043045 84 105 10.0 17.0 0.00 0.00 0.00 49 1009.3
20260831042524 84 103 10.0 17.0 0.00 0.00 0.00 49 1009.4
20260831042024 84 101 10.0 18.0 0.00 0.00 0.00 48 1009.5
20260831041557 85 94 12.0 18.0 0.00 0.00 0.00 48 1009.5
20260831041024 85 105 11.0 15.0 0.00 0.00 0.00 48 1009.6
20260831040525 85 115 10.0 15.0 0.00 0.00 0.00 48 1009.6
20260831040050 85 97 9.0 14.0 0.00 0.00 0.00 48 1009.6
20260831035524 85 99 9.0 14.0 0.00 0.00 0.00 48 1009.6
20260831035024 85 109 9.0 13.0 0.00 0.00 0.00 48 1009.6
20260831034545 85 119 8.0 12.0 0.00 0.00 0.00 48 1009.6
20260831034027 86 101 9.0 12.0 0.00 0.00 0.00 47 1009.5
20260831033525 86 104 8.0 12.0 0.00 0.00 0.00 47 1009.6
20260831033054 86 102 8.0 12.0 0.00 0.00 0.00 47 1009.6
20260831032525 86 108 7.0 13.0 0.00 0.00 0.00 47 1009.6
20260831032029 86 98 8.0 13.0 0.00 0.00 0.00 47 1009.6
20260831031549 87 108 9.0 14.0 0.00 0.00 0.00 47 1009.5
20260831031024 87 109 9.0 16.0 0.00 0.00 0.00 47 1009.6
20260831030527 87 103 9.0 16.0 0.00 0.00 0.00 46 1009.5